User: anonymous   Login
Location: The D'Auria's Ocala Star Observatory
(29.0276°N, 82.1742°W)
Time: 01:15:23
(UTC-04:00)
Language:

Abrixas rocket - Orbit

View from above orbital plane
View from above orbital plane
View from above satellite
View from above satellite

Ground track
Ground track

The orbit data is extracted from the following two-line orbital elements,

1 25723U 99022C   15085.58036554  .00015842  00000-0  41836-3 0  9991
2 25723 048.4203 140.6784 0012545 106.1767 011.9103 15.38432567880518
Epoch (UTC): 26 March 2015 13:55:43
Eccentricity: 0.0012545
inclination: 48.4203°
perigee height: 442 km
apogee height: 459 km
right ascension of ascending node: 140.6784°
argument of perigee: 106.1767°
revolutions per day: 15.38432567
mean anomaly at epoch: 11.9103°
orbit number at epoch: 88051

The dashed part of the orbit path shows where the satellite is in the earth's shadow,  

DLR